Time,TemperatureF,DewpointF,PressureIn,WindDirection,WindDirectionDegrees,WindSpeedMPH,WindSpeedGustMPH,Humidity,HourlyPrecipIn,Conditions,Clouds,dailyrainin,SoftwareType,DateUTC
2013-03-09 00:05:00,42.8,28.6,30.06,NW,315,0.0,0.0,57,0.00,,,0.00,HomebrewedOnLinux,2013-03-09 05:05:00,
2013-03-09 00:10:00,42.6,28.9,30.06,WNW,303,0.0,0.0,58,0.00,,,0.00,HomebrewedOnLinux,2013-03-09 05:10:00,
2013-03-09 00:20:00,42.3,28.4,30.06,West,270,0.0,0.0,58,0.00,,,0.00,HomebrewedOnLinux,2013-03-09 05:20:00,
2013-03-09 00:25:00,42.3,28.6,30.06,West,270,0.0,0.0,58,0.00,,,0.00,HomebrewedOnLinux,2013-03-09 05:25:00,
2013-03-09 00:30:00,42.1,28.4,30.06,West,270,0.0,0.0,58,0.00,,,0.00,HomebrewedOnLinux,2013-03-09 05:30:00,
2013-03-09 00:35:00,41.9,28.2,30.06,WNW,294,0.0,0.0,58,0.00,,,0.00,HomebrewedOnLinux,2013-03-09 05:35:00,
2013-03-09 00:40:00,41.7,28.3,30.06,North,350,0.0,0.0,59,0.00,,,0.00,HomebrewedOnLinux,2013-03-09 05:40:00,
2013-03-09 00:45:00,41.5,28.3,30.06,NNW,348,0.0,0.0,59,0.00,,,0.00,HomebrewedOnLinux,2013-03-09 05:45:00,
2013-03-09 00:55:00,41.4,28.2,30.06,WNW,293,0.0,0.0,59,0.00,,,0.00,HomebrewedOnLinux,2013-03-09 05:55:00,
2013-03-09 01:00:00,41.2,28.0,30.06,WNW,293,0.0,0.0,59,0.00,,,0.00,HomebrewedOnLinux,2013-03-09 06:00:00,
2013-03-09 01:05:00,41.0,28.1,30.06,NNW,340,0.0,0.0,60,0.00,,,0.00,HomebrewedOnLinux,2013-03-09 06:05:00,
2013-03-09 01:10:00,40.8,28.3,30.06,North,350,0.0,0.0,61,0.00,,,0.00,HomebrewedOnLinux,2013-03-09 06:10:00,
2013-03-09 01:15:00,40.8,28.4,30.06,NNW,338,0.0,0.0,61,0.00,,,0.00,HomebrewedOnLinux,2013-03-09 06:15:00,
2013-03-09 01:20:00,40.8,28.7,30.06,North,355,0.0,0.0,62,0.00,,,0.00,HomebrewedOnLinux,2013-03-09 06:20:00,
2013-03-09 01:30:00,40.6,28.7,30.06,NNW,338,0.0,0.0,62,0.00,,,0.00,HomebrewedOnLinux,2013-03-09 06:30:00,
2013-03-09 01:40:00,40.6,28.7,30.06,NNW,338,0.0,0.0,62,0.00,,,0.00,HomebrewedOnLinux,2013-03-09 06:40:00,
2013-03-09 01:45:00,40.5,28.5,30.06,North,353,0.0,0.0,62,0.00,,,0.00,HomebrewedOnLinux,2013-03-09 06:45:00,
2013-03-09 01:55:00,40.3,28.3,30.06,NE,54,0.0,0.0,62,0.00,,,0.00,HomebrewedOnLinux,2013-03-09 06:55:00,
2013-03-09 02:05:00,40.1,28.5,30.06,NNE,32,0.0,0.0,63,0.00,,,0.00,HomebrewedOnLinux,2013-03-09 07:05:00,
2013-03-09 02:15:00,39.9,28.4,30.06,West,273,0.0,0.0,63,0.00,,,0.00,HomebrewedOnLinux,2013-03-09 07:15:00,
2013-03-09 02:20:00,39.7,28.2,30.06,West,268,0.0,0.0,63,0.00,,,0.00,HomebrewedOnLinux,2013-03-09 07:20:00,
2013-03-09 02:25:00,39.6,28.3,30.06,West,266,0.0,0.0,64,0.00,,,0.00,HomebrewedOnLinux,2013-03-09 07:25:00,
2013-03-09 02:30:00,39.6,28.4,30.06,ESE,122,0.0,0.0,64,0.00,,,0.00,HomebrewedOnLinux,2013-03-09 07:30:00,
2013-03-09 02:40:00,39.4,28.3,30.06,NNE,33,0.0,0.0,64,0.00,,,0.00,HomebrewedOnLinux,2013-03-09 07:40:00,
2013-03-09 02:50:00,39.2,28.5,30.06,NNE,20,0.0,0.0,65,0.00,,,0.00,HomebrewedOnLinux,2013-03-09 07:50:00,
2013-03-09 02:55:00,38.8,28.5,30.06,WNW,298,0.0,0.0,66,0.00,,,0.00,HomebrewedOnLinux,2013-03-09 07:55:00,
2013-03-09 03:00:00,38.8,28.5,30.06,WNW,293,0.0,0.0,66,0.00,,,0.00,HomebrewedOnLinux,2013-03-09 08:00:00,
2013-03-09 03:05:00,38.7,28.3,30.06,NW,305,0.0,0.0,66,0.00,,,0.00,HomebrewedOnLinux,2013-03-09 08:05:00,
2013-03-09 03:15:00,38.5,28.4,30.06,NW,315,0.0,0.0,67,0.00,,,0.00,HomebrewedOnLinux,2013-03-09 08:15:00,
2013-03-09 03:20:00,38.5,28.3,30.06,NNE,22,0.0,0.0,66,0.00,,,0.00,HomebrewedOnLinux,2013-03-09 08:20:00,
2013-03-09 03:25:00,38.5,28.1,30.06,NNE,22,0.0,0.0,66,0.00,,,0.00,HomebrewedOnLinux,2013-03-09 08:25:00,
2013-03-09 03:30:00,38.3,28.0,30.03,NNW,335,0.0,0.0,66,0.00,,,0.00,HomebrewedOnLinux,2013-03-09 08:30:00,
2013-03-09 03:35:00,38.3,28.3,30.03,North,353,0.0,0.0,67,0.00,,,0.00,HomebrewedOnLinux,2013-03-09 08:35:00,
2013-03-09 03:40:00,38.1,27.9,30.03,NNE,22,0.0,0.0,66,0.00,,,0.00,HomebrewedOnLinux,2013-03-09 08:40:00,
2013-03-09 03:50:00,38.1,28.1,30.03,NNE,22,0.0,0.0,67,0.00,,,0.00,HomebrewedOnLinux,2013-03-09 08:50:00,
2013-03-09 03:55:00,37.9,27.7,30.03,NNE,22,0.0,0.0,66,0.00,,,0.00,HomebrewedOnLinux,2013-03-09 08:55:00,
2013-03-09 04:00:00,37.9,28.0,30.03,NNE,13,0.0,0.0,67,0.00,,,0.00,HomebrewedOnLinux,2013-03-09 09:00:00,
2013-03-09 04:05:00,37.9,28.0,30.03,North,0,0.0,0.0,67,0.00,,,0.00,HomebrewedOnLinux,2013-03-09 09:05:00,
2013-03-09 04:10:00,37.8,27.8,30.03,NNW,345,0.0,0.0,67,0.00,,,0.00,HomebrewedOnLinux,2013-03-09 09:10:00,
2013-03-09 04:15:00,37.6,27.7,30.06,NNW,338,0.0,0.0,67,0.00,,,0.00,HomebrewedOnLinux,2013-03-09 09:15:00,
2013-03-09 04:25:00,37.8,28.1,30.06,North,349,0.0,0.0,68,0.00,,,0.00,HomebrewedOnLinux,2013-03-09 09:25:00,
2013-03-09 04:35:00,37.8,28.2,30.06,NNE,25,0.0,0.0,68,0.00,,,0.00,HomebrewedOnLinux,2013-03-09 09:35:00,
2013-03-09 04:40:00,37.8,28.2,30.06,East,84,0.0,0.0,68,0.00,,,0.00,HomebrewedOnLinux,2013-03-09 09:40:00,
2013-03-09 04:45:00,37.6,28.0,30.06,NE,38,0.0,0.0,68,0.00,,,0.00,HomebrewedOnLinux,2013-03-09 09:45:00,
2013-03-09 04:55:00,37.6,28.0,30.06,NNE,29,0.0,0.0,68,0.00,,,0.00,HomebrewedOnLinux,2013-03-09 09:55:00,
2013-03-09 05:00:00,37.6,28.0,30.06,ENE,59,0.0,0.0,68,0.00,,,0.00,HomebrewedOnLinux,2013-03-09 10:00:00,
2013-03-09 05:05:00,37.4,27.8,30.06,NNW,340,0.0,0.0,68,0.00,,,0.00,HomebrewedOnLinux,2013-03-09 10:05:00,
2013-03-09 05:10:00,37.2,27.9,30.06,NNW,336,0.0,0.0,69,0.00,,,0.00,HomebrewedOnLinux,2013-03-09 10:10:00,
2013-03-09 05:15:00,37.4,28.2,30.06,NNW,327,0.0,0.0,69,0.00,,,0.00,HomebrewedOnLinux,2013-03-09 10:15:00,
2013-03-09 05:20:00,37.6,28.3,30.06,NNW,338,0.0,0.0,69,0.00,,,0.00,HomebrewedOnLinux,2013-03-09 10:20:00,
2013-03-09 05:25:00,37.6,28.5,30.06,NNW,338,0.0,0.0,69,0.00,,,0.00,HomebrewedOnLinux,2013-03-09 10:25:00,
2013-03-09 05:35:00,37.9,28.7,30.06,North,352,0.0,0.0,69,0.00,,,0.00,HomebrewedOnLinux,2013-03-09 10:35:00,
2013-03-09 05:45:00,38.1,29.1,30.06,NNW,338,0.0,0.0,70,0.00,,,0.00,HomebrewedOnLinux,2013-03-09 10:45:00,
2013-03-09 05:55:00,38.3,29.0,30.06,NNW,338,0.0,0.0,69,0.00,,,0.00,HomebrewedOnLinux,2013-03-09 10:55:00,
2013-03-09 06:00:00,38.5,29.2,30.06,NNW,338,0.0,0.0,69,0.00,,,0.00,HomebrewedOnLinux,2013-03-09 11:00:00,
2013-03-09 06:10:00,38.7,29.0,30.06,NW,315,0.0,0.0,68,0.00,,,0.00,HomebrewedOnLinux,2013-03-09 11:10:00,
2013-03-09 06:15:00,38.7,29.0,30.06,NW,315,0.0,0.0,68,0.00,,,0.00,HomebrewedOnLinux,2013-03-09 11:15:00,
2013-03-09 06:20:00,38.7,29.0,30.06,NNW,338,0.0,0.0,68,0.00,,,0.00,HomebrewedOnLinux,2013-03-09 11:20:00,
2013-03-09 06:25:00,38.8,29.2,30.06,NNW,338,0.0,0.0,68,0.00,,,0.00,HomebrewedOnLinux,2013-03-09 11:25:00,
2013-03-09 06:30:00,38.8,29.2,30.09,NNW,327,0.0,0.0,68,0.00,,,0.00,HomebrewedOnLinux,2013-03-09 11:30:00,
2013-03-09 06:35:00,39.0,29.4,30.09,NNE,22,0.0,0.0,68,0.00,,,0.00,HomebrewedOnLinux,2013-03-09 11:35:00,
2013-03-09 06:45:00,39.0,29.2,30.09,NW,310,0.0,0.0,68,0.00,,,0.00,HomebrewedOnLinux,2013-03-09 11:45:00,
2013-03-09 06:50:00,39.0,29.4,30.09,North,355,0.0,0.0,68,0.00,,,0.00,HomebrewedOnLinux,2013-03-09 11:50:00,
2013-03-09 06:55:00,39.2,29.2,30.09,NW,312,0.0,0.0,67,0.00,,,0.00,HomebrewedOnLinux,2013-03-09 11:55:00,
2013-03-09 07:00:00,39.4,29.3,30.09,NNW,338,0.0,0.0,67,0.00,,,0.00,HomebrewedOnLinux,2013-03-09 12:00:00,
2013-03-09 07:05:00,39.4,29.3,30.09,NNW,345,0.0,0.0,67,0.00,,,0.00,HomebrewedOnLinux,2013-03-09 12:05:00,
2013-03-09 07:10:00,39.6,29.3,30.09,NNW,346,0.0,0.0,66,0.00,,,0.00,HomebrewedOnLinux,2013-03-09 12:10:00,
2013-03-09 07:20:00,39.9,29.5,30.09,SE,128,0.0,0.0,66,0.00,,,0.00,HomebrewedOnLinux,2013-03-09 12:20:00,
2013-03-09 07:25:00,39.9,29.5,30.09,East,101,0.0,0.0,66,0.00,,,0.00,HomebrewedOnLinux,2013-03-09 12:25:00,
2013-03-09 07:30:00,40.1,29.6,30.06,East,90,0.0,0.0,66,0.00,,,0.00,HomebrewedOnLinux,2013-03-09 12:30:00,
2013-03-09 07:35:00,40.3,29.5,30.06,NW,309,0.0,0.0,65,0.00,,,0.00,HomebrewedOnLinux,2013-03-09 12:35:00,
2013-03-09 07:45:00,40.8,30.3,30.09,West,267,0.0,0.0,66,0.00,,,0.00,HomebrewedOnLinux,2013-03-09 12:45:00,
2013-03-09 07:50:00,41.2,30.2,30.09,SE,127,0.0,0.0,65,0.00,,,0.00,HomebrewedOnLinux,2013-03-09 12:50:00,
2013-03-09 07:55:00,41.5,30.3,30.09,East,90,0.0,0.0,64,0.00,,,0.00,HomebrewedOnLinux,2013-03-09 12:55:00,
2013-03-09 08:00:00,41.9,30.3,30.12,NNE,33,0.0,0.0,63,0.00,,,0.00,HomebrewedOnLinux,2013-03-09 13:00:00,
2013-03-09 08:05:00,42.3,30.0,30.12,ESE,105,0.0,0.0,62,0.00,,,0.00,HomebrewedOnLinux,2013-03-09 13:05:00,
2013-03-09 08:10:00,42.8,30.0,30.12,East,101,0.0,0.0,60,0.00,,,0.00,HomebrewedOnLinux,2013-03-09 13:10:00,
2013-03-09 08:20:00,44.1,30.4,30.12,ESE,109,1.0,4.0,58,0.00,,,0.00,HomebrewedOnLinux,2013-03-09 13:20:00,
2013-03-09 08:30:00,45.3,30.5,30.15,South,180,1.0,3.0,56,0.00,,,0.00,HomebrewedOnLinux,2013-03-09 13:30:00,
2013-03-09 08:35:00,45.7,30.5,30.15,ESE,118,2.0,4.0,55,0.00,,,0.00,HomebrewedOnLinux,2013-03-09 13:35:00,
2013-03-09 08:40:00,46.2,30.7,30.15,ESE,112,1.0,3.0,54,0.00,,,0.00,HomebrewedOnLinux,2013-03-09 13:40:00,
2013-03-09 08:50:00,46.9,30.5,30.15,SSE,152,1.0,4.0,53,0.00,,,0.00,HomebrewedOnLinux,2013-03-09 13:50:00,
2013-03-09 08:55:00,47.3,30.6,30.15,ESE,121,2.0,4.0,52,0.00,,,0.00,HomebrewedOnLinux,2013-03-09 13:55:00,
2013-03-09 09:00:00,47.5,30.6,30.15,ESE,108,2.0,5.0,52,0.00,,,0.00,HomebrewedOnLinux,2013-03-09 14:00:00,
2013-03-09 09:05:00,47.8,30.6,30.15,ESE,121,2.0,4.0,51,0.00,,,0.00,HomebrewedOnLinux,2013-03-09 14:05:00,
2013-03-09 09:15:00,48.6,30.8,30.15,SW,230,2.0,4.0,50,0.00,,,0.00,HomebrewedOnLinux,2013-03-09 14:15:00,
2013-03-09 09:20:00,48.9,30.8,30.15,WSW,248,2.0,7.0,49,0.00,,,0.00,HomebrewedOnLinux,2013-03-09 14:20:00,
2013-03-09 09:25:00,49.3,30.8,30.15,West,262,1.0,3.0,49,0.00,,,0.00,HomebrewedOnLinux,2013-03-09 14:25:00,
2013-03-09 09:30:00,49.8,31.2,30.15,West,273,2.0,3.0,49,0.00,,,0.00,HomebrewedOnLinux,2013-03-09 14:30:00,
2013-03-09 09:40:00,50.7,31.9,30.15,ESE,103,2.0,5.0,48,0.00,,,0.00,HomebrewedOnLinux,2013-03-09 14:40:00,
2013-03-09 09:50:00,52.0,32.7,30.15,ESE,105,1.0,3.0,48,0.00,,,0.00,HomebrewedOnLinux,2013-03-09 14:50:00,
2013-03-09 09:55:00,52.3,32.7,30.15,West,261,2.0,5.0,47,0.00,,,0.00,HomebrewedOnLinux,2013-03-09 14:55:00,
2013-03-09 10:05:00,53.2,33.5,30.18,ESE,111,2.0,4.0,47,0.00,,,0.00,HomebrewedOnLinux,2013-03-09 15:05:00,
2013-03-09 10:15:00,54.3,33.5,30.15,WSW,257,2.0,3.0,45,0.00,,,0.00,HomebrewedOnLinux,2013-03-09 15:15:00,
2013-03-09 10:25:00,54.9,33.5,30.15,WNW,293,3.0,6.0,44,0.00,,,0.00,HomebrewedOnLinux,2013-03-09 15:25:00,
2013-03-09 10:30:00,55.2,34.0,30.15,West,280,3.0,5.0,45,0.00,,,0.00,HomebrewedOnLinux,2013-03-09 15:30:00,
2013-03-09 10:40:00,55.8,33.7,30.15,East,93,3.0,4.0,43,0.00,,,0.00,HomebrewedOnLinux,2013-03-09 15:40:00,
2013-03-09 10:45:00,55.9,33.5,30.15,NE,50,2.0,4.0,43,0.00,,,0.00,HomebrewedOnLinux,2013-03-09 15:45:00,
2013-03-09 10:50:00,56.7,34.1,30.15,SE,136,1.0,3.0,42,0.00,,,0.00,HomebrewedOnLinux,2013-03-09 15:50:00,
2013-03-09 10:55:00,57.4,34.5,30.15,SSE,150,0.0,1.0,42,0.00,,,0.00,HomebrewedOnLinux,2013-03-09 15:55:00,
2013-03-09 11:00:00,57.6,34.6,30.15,SW,221,2.0,6.0,42,0.00,,,0.00,HomebrewedOnLinux,2013-03-09 16:00:00,
2013-03-09 11:05:00,57.6,34.2,30.15,WNW,290,2.0,4.0,41,0.00,,,0.00,HomebrewedOnLinux,2013-03-09 16:05:00,
2013-03-09 11:15:00,57.7,34.0,30.15,ESE,113,2.0,5.0,41,0.00,,,0.00,HomebrewedOnLinux,2013-03-09 16:15:00,
2013-03-09 11:25:00,58.1,34.0,30.15,WSW,257,2.0,4.0,40,0.00,,,0.00,HomebrewedOnLinux,2013-03-09 16:25:00,
2013-03-09 11:35:00,58.5,34.0,30.15,ENE,66,1.0,2.0,40,0.00,,,0.00,HomebrewedOnLinux,2013-03-09 16:35:00,
2013-03-09 11:45:00,59.9,35.4,30.12,ESE,118,3.0,6.0,40,0.00,,,0.00,HomebrewedOnLinux,2013-03-09 16:45:00,
2013-03-09 11:50:00,60.8,36.0,30.12,WNW,287,2.0,4.0,40,0.00,,,0.00,HomebrewedOnLinux,2013-03-09 16:50:00,
2013-03-09 12:00:00,61.2,35.7,30.12,SSE,150,2.0,5.0,38,0.00,,,0.00,HomebrewedOnLinux,2013-03-09 17:00:00,
2013-03-09 12:05:00,61.3,35.6,30.12,ESE,123,2.0,3.0,38,0.00,,,0.00,HomebrewedOnLinux,2013-03-09 17:05:00,
2013-03-09 12:10:00,61.3,35.5,30.12,ESE,102,2.0,4.0,38,0.00,,,0.00,HomebrewedOnLinux,2013-03-09 17:10:00,
2013-03-09 12:15:00,60.8,35.4,30.09,ENE,72,2.0,4.0,38,0.00,,,0.00,HomebrewedOnLinux,2013-03-09 17:15:00,
2013-03-09 12:20:00,60.6,34.9,30.09,SE,127,1.0,3.0,38,0.00,,,0.00,HomebrewedOnLinux,2013-03-09 17:20:00,
2013-03-09 12:25:00,60.8,34.8,30.09,NW,306,1.0,4.0,38,0.00,,,0.00,HomebrewedOnLinux,2013-03-09 17:25:00,
2013-03-09 12:35:00,61.0,34.5,30.09,WSW,247,2.0,5.0,37,0.00,,,0.00,HomebrewedOnLinux,2013-03-09 17:35:00,
2013-03-09 12:45:00,61.9,35.3,30.09,WSW,242,3.0,6.0,37,0.00,,,0.00,HomebrewedOnLinux,2013-03-09 17:45:00,
2013-03-09 12:55:00,62.8,36.1,30.09,East,97,3.0,5.0,37,0.00,,,0.00,HomebrewedOnLinux,2013-03-09 17:55:00,
2013-03-09 13:00:00,62.8,35.6,30.09,North,357,2.0,3.0,36,0.00,,,0.00,HomebrewedOnLinux,2013-03-09 18:00:00,
2013-03-09 13:05:00,63.9,36.4,30.09,SSW,208,1.0,3.0,36,0.00,,,0.00,HomebrewedOnLinux,2013-03-09 18:05:00,
2013-03-09 13:10:00,64.6,37.0,30.09,South,169,2.0,3.0,36,0.00,,,0.00,HomebrewedOnLinux,2013-03-09 18:10:00,
2013-03-09 13:15:00,64.2,36.6,30.09,ENE,69,1.0,3.0,36,0.00,,,0.00,HomebrewedOnLinux,2013-03-09 18:15:00,
2013-03-09 13:20:00,64.2,36.7,30.09,South,182,1.0,3.0,36,0.00,,,0.00,HomebrewedOnLinux,2013-03-09 18:20:00,
2013-03-09 13:25:00,64.4,36.9,30.09,ESE,108,2.0,4.0,36,0.00,,,0.00,HomebrewedOnLinux,2013-03-09 18:25:00,
2013-03-09 13:35:00,64.2,36.6,30.06,ESE,108,0.0,0.0,36,0.00,,,0.00,HomebrewedOnLinux,2013-03-09 18:35:00,
2013-03-09 13:45:00,64.8,36.5,30.06,NNE,26,2.0,4.0,35,0.00,,,0.00,HomebrewedOnLinux,2013-03-09 18:45:00,
2013-03-09 13:55:00,65.5,37.1,30.06,NE,41,2.0,4.0,35,0.00,,,0.00,HomebrewedOnLinux,2013-03-09 18:55:00,
2013-03-09 14:00:00,66.2,37.7,30.06,SE,131,1.0,4.0,35,0.00,,,0.00,HomebrewedOnLinux,2013-03-09 19:00:00,
2013-03-09 14:10:00,66.9,37.6,30.06,NE,34,0.0,0.0,34,0.00,,,0.00,HomebrewedOnLinux,2013-03-09 19:10:00,
2013-03-09 14:20:00,66.7,37.5,30.03,ESE,105,2.0,4.0,34,0.00,,,0.00,HomebrewedOnLinux,2013-03-09 19:20:00,
2013-03-09 14:30:00,66.0,36.8,30.03,ESE,103,2.0,3.0,34,0.00,,,0.00,HomebrewedOnLinux,2013-03-09 19:30:00,
2013-03-09 14:40:00,65.5,36.4,30.03,SE,126,2.0,3.0,34,0.00,,,0.00,HomebrewedOnLinux,2013-03-09 19:40:00,
2013-03-09 14:45:00,65.5,36.4,30.03,North,7,2.0,2.0,34,0.00,,,0.00,HomebrewedOnLinux,2013-03-09 19:45:00,
2013-03-09 14:55:00,65.7,36.5,30.03,North,356,0.0,1.0,34,0.00,,,0.00,HomebrewedOnLinux,2013-03-09 19:55:00,
2013-03-09 15:00:00,65.8,36.7,30.03,North,358,1.0,3.0,34,0.00,,,0.00,HomebrewedOnLinux,2013-03-09 20:00:00,
2013-03-09 15:05:00,66.0,36.8,30.03,NNE,24,1.0,4.0,34,0.00,,,0.00,HomebrewedOnLinux,2013-03-09 20:05:00,
2013-03-09 15:10:00,66.0,36.7,30.03,North,350,0.0,2.0,34,0.00,,,0.00,HomebrewedOnLinux,2013-03-09 20:10:00,
2013-03-09 15:15:00,66.4,36.4,30.03,ENE,68,0.0,0.0,33,0.00,,,0.00,HomebrewedOnLinux,2013-03-09 20:15:00,
2013-03-09 15:20:00,66.9,37.3,30.03,West,277,0.0,2.0,34,0.00,,,0.00,HomebrewedOnLinux,2013-03-09 20:20:00,
2013-03-09 15:30:00,67.6,37.8,30.03,East,101,2.0,4.0,33,0.00,,,0.00,HomebrewedOnLinux,2013-03-09 20:30:00,
2013-03-09 15:35:00,67.8,37.7,30.03,NE,41,1.0,3.0,33,0.00,,,0.00,HomebrewedOnLinux,2013-03-09 20:35:00,
2013-03-09 15:45:00,68.4,38.1,30.03,ESE,111,0.0,2.0,33,0.00,,,0.00,HomebrewedOnLinux,2013-03-09 20:45:00,
2013-03-09 15:50:00,68.4,38.1,30.03,ESE,120,1.0,2.0,33,0.00,,,0.00,HomebrewedOnLinux,2013-03-09 20:50:00,
2013-03-09 15:55:00,68.7,38.4,30.03,SW,215,0.0,0.0,33,0.00,,,0.00,HomebrewedOnLinux,2013-03-09 20:55:00,
2013-03-09 16:05:00,68.4,38.1,30.03,West,264,2.0,4.0,33,0.00,,,0.00,HomebrewedOnLinux,2013-03-09 21:05:00,
2013-03-09 16:10:00,68.2,38.0,30.03,West,267,2.0,4.0,33,0.00,,,0.00,HomebrewedOnLinux,2013-03-09 21:10:00,
2013-03-09 16:15:00,67.8,37.7,30.03,SSW,210,1.0,3.0,33,0.00,,,0.00,HomebrewedOnLinux,2013-03-09 21:15:00,
2013-03-09 16:20:00,67.6,37.5,30.03,NE,54,0.0,1.0,33,0.00,,,0.00,HomebrewedOnLinux,2013-03-09 21:20:00,
2013-03-09 16:25:00,67.5,37.3,30.03,NNE,31,0.0,0.0,33,0.00,,,0.00,HomebrewedOnLinux,2013-03-09 21:25:00,
2013-03-09 16:30:00,67.1,37.0,30.00,SSW,199,0.0,0.0,33,0.00,,,0.00,HomebrewedOnLinux,2013-03-09 21:30:00,
2013-03-09 16:40:00,66.2,36.4,30.00,SSE,166,0.0,0.0,33,0.00,,,0.00,HomebrewedOnLinux,2013-03-09 21:40:00,
2013-03-09 16:50:00,65.7,36.5,30.00,WNW,287,1.0,2.0,34,0.00,,,0.00,HomebrewedOnLinux,2013-03-09 21:50:00,
2013-03-09 16:55:00,65.5,36.0,30.00,WNW,299,0.0,2.0,34,0.00,,,0.00,HomebrewedOnLinux,2013-03-09 21:55:00,
2013-03-09 17:00:00,65.5,36.0,30.00,NNW,337,0.0,0.0,34,0.00,,,0.00,HomebrewedOnLinux,2013-03-09 22:00:00,
2013-03-09 17:05:00,65.3,36.2,30.00,North,357,0.0,0.0,34,0.00,,,0.00,HomebrewedOnLinux,2013-03-09 22:05:00,
2013-03-09 17:10:00,65.1,36.1,30.00,SSE,165,0.0,0.0,34,0.00,,,0.00,HomebrewedOnLinux,2013-03-09 22:10:00,
2013-03-09 17:15:00,65.1,36.1,30.00,West,277,0.0,0.0,34,0.00,,,0.00,HomebrewedOnLinux,2013-03-09 22:15:00,
2013-03-09 17:20:00,65.5,36.4,30.00,North,358,0.0,0.0,34,0.00,,,0.00,HomebrewedOnLinux,2013-03-09 22:20:00,
2013-03-09 17:30:00,64.9,35.9,30.00,North,-999,-999.0,-999.0,34,0.00,,,0.00,HomebrewedOnLinux,2013-03-09 22:30:00,
2013-03-09 17:40:00,63.9,35.7,30.00,North,-999,-999.0,-999.0,35,0.00,,,0.00,HomebrewedOnLinux,2013-03-09 22:40:00,
2013-03-09 17:45:00,63.1,35.0,30.00,North,-999,-999.0,-999.0,35,0.00,,,0.00,HomebrewedOnLinux,2013-03-09 22:45:00,
2013-03-09 17:50:00,62.8,34.7,30.00,North,-999,-999.0,-999.0,35,0.00,,,0.00,HomebrewedOnLinux,2013-03-09 22:50:00,
2013-03-09 17:55:00,62.4,35.1,30.00,NNW,338,0.0,0.0,36,0.00,,,0.00,HomebrewedOnLinux,2013-03-09 22:55:00,
2013-03-09 18:00:00,61.9,34.6,30.03,NNW,338,0.0,0.0,36,0.00,,,0.00,HomebrewedOnLinux,2013-03-09 23:00:00,
2013-03-09 18:05:00,61.5,35.0,30.03,NNW,338,0.0,0.0,37,0.00,,,0.00,HomebrewedOnLinux,2013-03-09 23:05:00,
2013-03-09 18:10:00,61.2,34.7,30.03,North,-999,-999.0,-999.0,37,0.00,,,0.00,HomebrewedOnLinux,2013-03-09 23:10:00,
2013-03-09 18:15:00,60.6,34.6,30.03,North,-999,-999.0,-999.0,38,0.00,,,0.00,HomebrewedOnLinux,2013-03-09 23:15:00,
2013-03-09 18:20:00,60.3,34.6,30.03,North,-999,-999.0,-999.0,38,0.00,,,0.00,HomebrewedOnLinux,2013-03-09 23:20:00,
2013-03-09 18:25:00,59.9,34.4,30.03,North,-999,-999.0,-999.0,38,0.00,,,0.00,HomebrewedOnLinux,2013-03-09 23:25:00,
2013-03-09 18:35:00,59.2,34.4,30.00,North,-999,-999.0,-999.0,39,0.00,,,0.00,HomebrewedOnLinux,2013-03-09 23:35:00,
2013-03-09 18:40:00,58.8,34.9,30.00,North,-999,-999.0,-999.0,41,0.00,,,0.00,HomebrewedOnLinux,2013-03-09 23:40:00,
2013-03-09 18:45:00,58.5,34.7,30.03,North,-999,-999.0,-999.0,41,0.00,,,0.00,HomebrewedOnLinux,2013-03-09 23:45:00,
2013-03-09 18:50:00,58.1,33.9,30.03,North,-999,-999.0,-999.0,40,0.00,,,0.00,HomebrewedOnLinux,2013-03-09 23:50:00,
2013-03-09 18:55:00,57.7,34.2,30.03,North,-999,-999.0,-999.0,41,0.00,,,0.00,HomebrewedOnLinux,2013-03-09 23:55:00,
2013-03-09 19:00:00,57.4,34.1,30.03,North,-999,-999.0,-999.0,41,0.00,,,0.00,HomebrewedOnLinux,2013-03-10 00:00:00,
2013-03-09 19:05:00,57.0,34.5,30.03,North,-999,-999.0,-999.0,43,0.00,,,0.00,HomebrewedOnLinux,2013-03-10 00:05:00,
2013-03-09 19:10:00,56.7,34.0,30.03,North,-999,-999.0,-999.0,42,0.00,,,0.00,HomebrewedOnLinux,2013-03-10 00:10:00,
2013-03-09 19:15:00,56.5,33.7,30.03,North,-999,-999.0,-999.0,42,0.00,,,0.00,HomebrewedOnLinux,2013-03-10 00:15:00,
2013-03-09 19:20:00,56.3,33.5,30.03,North,-999,-999.0,-999.0,42,0.00,,,0.00,HomebrewedOnLinux,2013-03-10 00:20:00,
2013-03-09 19:25:00,55.9,33.2,30.03,North,-999,-999.0,-999.0,42,0.00,,,0.00,HomebrewedOnLinux,2013-03-10 00:25:00,
2013-03-09 19:30:00,55.8,33.6,30.03,North,-999,-999.0,-999.0,43,0.00,,,0.00,HomebrewedOnLinux,2013-03-10 00:30:00,
2013-03-09 19:40:00,55.0,33.5,30.03,North,-999,-999.0,-999.0,44,0.00,,,0.00,HomebrewedOnLinux,2013-03-10 00:40:00,
2013-03-09 19:45:00,54.9,33.9,30.03,North,-999,-999.0,-999.0,45,0.00,,,0.00,HomebrewedOnLinux,2013-03-10 00:45:00,
2013-03-09 19:50:00,54.5,33.6,30.03,North,-999,-999.0,-999.0,45,0.00,,,0.00,HomebrewedOnLinux,2013-03-10 00:50:00,
2013-03-09 19:55:00,54.3,33.7,30.03,North,-999,-999.0,-999.0,45,0.00,,,0.00,HomebrewedOnLinux,2013-03-10 00:55:00,
2013-03-09 20:00:00,54.1,33.7,30.00,North,-999,-999.0,-999.0,46,0.00,,,0.00,HomebrewedOnLinux,2013-03-10 01:00:00,
2013-03-09 20:05:00,54.1,33.6,30.00,North,-999,-999.0,-999.0,46,0.00,,,0.00,HomebrewedOnLinux,2013-03-10 01:05:00,
2013-03-09 20:10:00,54.0,33.7,30.00,NW,309,0.0,0.0,46,0.00,,,0.00,HomebrewedOnLinux,2013-03-10 01:10:00,
2013-03-09 20:20:00,53.8,33.5,30.03,NW,315,0.0,0.0,46,0.00,,,0.00,HomebrewedOnLinux,2013-03-10 01:20:00,
2013-03-09 20:25:00,53.8,33.5,30.03,NW,315,0.0,0.0,46,0.00,,,0.00,HomebrewedOnLinux,2013-03-10 01:25:00,
2013-03-09 20:30:00,53.6,33.4,30.03,NW,315,0.0,0.0,46,0.00,,,0.00,HomebrewedOnLinux,2013-03-10 01:30:00,
2013-03-09 20:40:00,53.4,33.7,30.03,NW,315,0.0,0.0,47,0.00,,,0.00,HomebrewedOnLinux,2013-03-10 01:40:00,
2013-03-09 20:45:00,53.2,33.5,30.03,NW,315,0.0,0.0,47,0.00,,,0.00,HomebrewedOnLinux,2013-03-10 01:45:00,
2013-03-09 20:55:00,53.2,33.6,30.03,NW,310,0.0,0.0,47,0.00,,,0.00,HomebrewedOnLinux,2013-03-10 01:55:00,
2013-03-09 21:00:00,53.2,34.1,30.00,WSW,249,0.0,0.0,48,0.00,,,0.00,HomebrewedOnLinux,2013-03-10 02:00:00,
2013-03-09 21:10:00,53.1,33.9,30.00,West,274,0.0,0.0,48,0.00,,,0.00,HomebrewedOnLinux,2013-03-10 02:10:00,
2013-03-09 21:20:00,52.9,33.7,30.03,WNW,293,0.0,0.0,48,0.00,,,0.00,HomebrewedOnLinux,2013-03-10 02:20:00,
2013-03-09 21:25:00,52.9,33.7,30.03,WNW,293,0.0,0.0,48,0.00,,,0.00,HomebrewedOnLinux,2013-03-10 02:25:00,
2013-03-09 21:30:00,52.9,34.2,30.03,WNW,293,0.0,0.0,49,0.00,,,0.00,HomebrewedOnLinux,2013-03-10 02:30:00,
2013-03-09 21:35:00,52.7,34.2,30.03,WNW,293,0.0,0.0,49,0.00,,,0.00,HomebrewedOnLinux,2013-03-10 02:35:00,
2013-03-09 21:45:00,52.5,34.2,30.03,WNW,293,0.0,0.0,50,0.00,,,0.00,HomebrewedOnLinux,2013-03-10 02:45:00,
2013-03-09 21:55:00,52.3,34.3,30.03,NNW,337,0.0,0.0,50,0.00,,,0.00,HomebrewedOnLinux,2013-03-10 02:55:00,
2013-03-09 22:05:00,52.0,34.3,30.03,NNW,338,0.0,0.0,51,0.00,,,0.00,HomebrewedOnLinux,2013-03-10 03:05:00,
2013-03-09 22:10:00,52.0,34.4,30.03,NNW,338,0.0,0.0,51,0.00,,,0.00,HomebrewedOnLinux,2013-03-10 03:10:00,
2013-03-09 22:20:00,51.8,34.3,30.03,NNW,338,0.0,0.0,51,0.00,,,0.00,HomebrewedOnLinux,2013-03-10 03:20:00,
2013-03-09 22:30:00,51.6,34.6,30.03,NNW,338,0.0,0.0,52,0.00,,,0.00,HomebrewedOnLinux,2013-03-10 03:30:00,
2013-03-09 22:35:00,51.4,34.4,30.03,NNW,338,0.0,0.0,52,0.00,,,0.00,HomebrewedOnLinux,2013-03-10 03:35:00,
2013-03-09 22:40:00,51.3,34.6,30.03,NNW,338,0.0,0.0,53,0.00,,,0.00,HomebrewedOnLinux,2013-03-10 03:40:00,
2013-03-09 22:45:00,51.1,34.2,30.03,NNW,338,0.0,0.0,52,0.00,,,0.00,HomebrewedOnLinux,2013-03-10 03:45:00,
2013-03-09 22:55:00,50.7,34.0,30.03,NW,315,0.0,0.0,53,0.00,,,0.00,HomebrewedOnLinux,2013-03-10 03:55:00,
2013-03-09 23:05:00,50.4,34.1,30.03,NW,315,0.0,0.0,53,0.00,,,0.00,HomebrewedOnLinux,2013-03-10 04:05:00,
2013-03-09 23:15:00,50.0,33.9,30.03,NW,315,0.0,0.0,54,0.00,,,0.00,HomebrewedOnLinux,2013-03-10 04:15:00,
2013-03-09 23:20:00,49.8,33.8,30.03,NW,315,0.0,0.0,54,0.00,,,0.00,HomebrewedOnLinux,2013-03-10 04:20:00,
2013-03-09 23:25:00,49.8,33.8,30.03,NW,315,0.0,0.0,54,0.00,,,0.00,HomebrewedOnLinux,2013-03-10 04:25:00,
2013-03-09 23:35:00,49.5,33.6,30.03,North,-999,-999.0,-999.0,54,0.00,,,0.00,HomebrewedOnLinux,2013-03-10 04:35:00,
2013-03-09 23:40:00,49.3,33.6,30.03,North,-999,-999.0,-999.0,54,0.00,,,0.00,HomebrewedOnLinux,2013-03-10 04:40:00,
2013-03-09 23:45:00,49.3,33.8,30.00,NW,315,0.0,0.0,55,0.00,,,0.00,HomebrewedOnLinux,2013-03-10 04:45:00,
2013-03-09 23:50:00,49.1,33.6,30.00,North,-999,-999.0,-999.0,55,0.00,,,0.00,HomebrewedOnLinux,2013-03-10 04:50:00,
2013-03-09 23:55:00,48.9,33.6,30.00,NW,315,0.0,0.0,55,0.00,,,0.00,HomebrewedOnLinux,2013-03-10 04:55:00,